| time (UTC) | temp F | wind direction | speed MPH | gust MPH | rain 1hr in | rain 24hr in | rain mn in | humidity % | barometer mb |
| 20260502130140 | 76 | 216 | 9.0 | 16.0 | 0.00 | 0.00 | 0.00 | 34 | 1015.4 |
| 20260502123140 | 74 | 210 | 8.0 | 14.0 | 0.00 | 0.00 | 0.00 | 37 | 1015.8 |
| 20260502121552 | 75 | 178 | 8.0 | 15.0 | 0.00 | 0.00 | 0.00 | 37 | 1016.1 |
| 20260502120153 | 75 | 202 | 9.0 | 13.0 | 0.00 | 0.00 | 0.00 | 37 | 1016.2 |
| 20260502114611 | 75 | 221 | 10.0 | 17.0 | 0.00 | 0.00 | 0.00 | 36 | 1016.5 |
| 20260502113016 | 74 | 208 | 10.0 | 16.0 | 0.00 | 0.00 | 0.00 | 38 | 1016.5 |
| 20260502111606 | 74 | 209 | 7.0 | 11.0 | 0.00 | 0.00 | 0.00 | 40 | 1016.7 |
| 20260502110155 | 74 | 219 | 8.0 | 14.0 | 0.00 | 0.00 | 0.00 | 40 | 1017.0 |
| 20260502104553 | 74 | 193 | 6.0 | 14.0 | 0.00 | 0.00 | 0.00 | 42 | 1017.1 |
| 20260502103005 | 74 | 232 | 6.0 | 12.0 | 0.00 | 0.00 | 0.00 | 40 | 1017.2 |
| 20260502101627 | 73 | 228 | 4.0 | 12.0 | 0.00 | 0.00 | 0.00 | 46 | 1017.3 |
| 20260502071507 | 65 | 211 | 4.0 | 10.0 | 0.00 | 0.00 | 0.00 | 54 | 1018.5 |
| 20260502070001 | 63 | 221 | 6.0 | 10.0 | 0.00 | 0.00 | 0.00 | 54 | 1018.6 |
| 20260502064559 | 63 | 186 | 5.0 | 12.0 | 0.00 | 0.00 | 0.00 | 55 | 1018.8 |
| 20260502063057 | 62 | 182 | 6.0 | 11.0 | 0.00 | 0.00 | 0.00 | 56 | 1018.8 |
| 20260502061549 | 60 | 190 | 4.0 | 7.0 | 0.00 | 0.00 | 0.00 | 61 | 1018.8 |
| 20260502060043 | 58 | 198 | 3.0 | 6.0 | 0.00 | 0.00 | 0.00 | 64 | 1019.0 |
| 20260502054541 | 56 | 225 | 1.0 | 3.0 | 0.00 | 0.00 | 0.00 | 68 | 1019.1 |
| 20260502053034 | 53 | 227 | 0.0 | 2.0 | 0.00 | 0.00 | 0.00 | 71 | 1019.2 |
| 20260502051529 | 52 | 229 | 0.0 | 1.0 | 0.00 | 0.00 | 0.00 | 77 | 1019.3 |
| 20260502050024 | 49 | 229 | 0.0 | 0.0 | 0.00 | 0.00 | 0.00 | 81 | 1019.4 |
| 20260502044520 | 46 | 229 | 0.0 | 0.0 | 0.00 | 0.00 | 0.00 | 81 | 1019.6 |
| 20260502043015 | 44 | 229 | 0.0 | 0.0 | 0.00 | 0.00 | 0.00 | 84 | 1019.6 |
| 20260502041512 | 41 | 229 | 0.0 | 0.0 | 0.00 | 0.00 | 0.00 | 88 | 1019.8 |
| 20260502040008 | 0 | 0.0 | 0.0 | 0.00 | 0.00 | 0.00 | 1019.9 | ||
| 20260502034505 | 0 | 0.0 | 0.0 | 0.00 | 0.00 | 0.00 | 1020.1 | ||
| 20260502033100 | 38 | 229 | 0.0 | 0.0 | 0.00 | 0.00 | 0.00 | 88 | 1020.3 |
| 20260502033001 | 38 | 229 | 0.0 | 0.0 | 0.00 | 0.00 | 0.00 | 88 | 1020.3 |
| 20260502031558 | 38 | 229 | 0.0 | 0.0 | 0.00 | 0.00 | 0.00 | 88 | 1020.4 |
| 20260502030106 | 38 | 229 | 0.0 | 0.0 | 0.00 | 0.00 | 0.00 | 87 | 1020.6 |
| 20260502024556 | 39 | 229 | 0.0 | 0.0 | 0.00 | 0.00 | 0.00 | 87 | 1020.7 |
| 20260502023120 | 39 | 229 | 0.0 | 0.0 | 0.00 | 0.00 | 0.00 | 88 | 1020.9 |
| 20260502021553 | 39 | 229 | 0.0 | 0.0 | 0.00 | 0.00 | 0.00 | 87 | 1021.1 |
| 20260502020104 | 39 | 229 | 0.0 | 0.0 | 0.00 | 0.00 | 0.00 | 87 | 1021.3 |
| 20260502014551 | 39 | 229 | 0.0 | 0.0 | 0.00 | 0.00 | 0.00 | 87 | 1021.4 |
| 20260502013059 | 39 | 229 | 0.0 | 0.0 | 0.00 | 0.00 | 0.00 | 87 | 1021.5 |
| 20260502011545 | 39 | 229 | 0.0 | 0.0 | 0.00 | 0.00 | 0.00 | 86 | 1021.7 |
| 20260502010044 | 40 | 229 | 0.0 | 0.0 | 0.00 | 0.00 | 0.00 | 86 | 1021.7 |
| 20260502004548 | 40 | 229 | 0.0 | 0.0 | 0.00 | 0.00 | 0.00 | 86 | 1021.9 |
| 20260502003039 | 40 | 229 | 0.0 | 0.0 | 0.00 | 0.00 | 0.00 | 86 | 1022.1 |
| 20260502001554 | 40 | 229 | 0.0 | 0.0 | 0.00 | 0.00 | 0.00 | 87 | 1022.2 |
| 20260502000037 | 40 | 229 | 0.0 | 0.0 | 0.00 | 0.00 | 0.00 | 86 | 1022.4 |
| 20260501234534 | 41 | 229 | 0.0 | 0.0 | 0.00 | 0.00 | 0.00 | 85 | 1022.4 |
| 20260501233134 | 41 | 229 | 0.0 | 0.0 | 0.00 | 0.00 | 0.00 | 85 | 1022.5 |
| 20260501231530 | 41 | 229 | 0.0 | 0.0 | 0.00 | 0.00 | 0.00 | 84 | 1022.6 |
| 20260501230035 | 42 | 229 | 0.0 | 0.0 | 0.00 | 0.00 | 0.00 | 85 | 1022.7 |
| 20260501224527 | 42 | 229 | 0.0 | 0.0 | 0.00 | 0.00 | 0.00 | 85 | 1022.9 |
| 20260501223026 | 42 | 229 | 0.0 | 0.0 | 0.00 | 0.00 | 0.00 | 84 | 1023.0 |
| 20260501221522 | 42 | 229 | 0.0 | 0.0 | 0.00 | 0.00 | 0.00 | 81 | 1023.0 |
| 20260501220038 | 43 | 229 | 0.0 | 0.0 | 0.00 | 0.00 | 0.00 | 80 | 1023.0 |
| 20260501214517 | 44 | 229 | 0.0 | 0.0 | 0.00 | 0.00 | 0.00 | 79 | 1023.1 |
| 20260501213015 | 45 | 229 | 0.0 | 0.0 | 0.00 | 0.00 | 0.00 | 78 | 1023.3 |
| 20260501211514 | 46 | 229 | 0.0 | 0.0 | 0.00 | 0.00 | 0.00 | 77 | 1023.5 |
| 20260501210015 | 47 | 229 | 0.0 | 0.0 | 0.00 | 0.00 | 0.00 | 74 | 1023.6 |
| 20260501204516 | 48 | 229 | 0.0 | 0.0 | 0.00 | 0.00 | 0.00 | 74 | 1023.7 |
| 20260501203010 | 49 | 229 | 0.0 | 0.0 | 0.00 | 0.00 | 0.00 | 70 | 1023.8 |
| 20260501201509 | 50 | 229 | 0.0 | 0.0 | 0.00 | 0.00 | 0.00 | 70 | 1023.9 |
| 20260501200008 | 52 | 229 | 0.0 | 0.0 | 0.00 | 0.00 | 0.00 | 65 | 1024.0 |
| 20260501194509 | 54 | 229 | 0.0 | 0.0 | 0.00 | 0.00 | 0.00 | 62 | 1024.1 |
| 20260501193006 | 56 | 229 | 0.0 | 0.0 | 0.00 | 0.00 | 0.00 | 57 | 1024.1 |
| 20260501191508 | 58 | 229 | 0.0 | 0.0 | 0.00 | 0.00 | 0.00 | 54 | 1024.2 |
| 20260501190007 | 60 | 229 | 0.0 | 0.0 | 0.00 | 0.00 | 0.00 | 49 | 1024.3 |
| 20260501184510 | 62 | 229 | 0.0 | 2.0 | 0.00 | 0.00 | 0.00 | 46 | 1024.3 |
| 20260501183004 | 64 | 229 | 0.0 | 3.0 | 0.00 | 0.00 | 0.00 | 43 | 1024.4 |
| 20260501181510 | 65 | 231 | 1.0 | 5.0 | 0.00 | 0.00 | 0.00 | 42 | 1024.2 |
| 20260501180003 | 66 | 234 | 2.0 | 6.0 | 0.00 | 0.00 | 0.00 | 42 | 1024.2 |
| 20260501174501 | 66 | 216 | 4.0 | 7.0 | 0.00 | 0.00 | 0.00 | 42 | 1024.2 |
| 20260501173002 | 67 | 219 | 2.0 | 7.0 | 0.00 | 0.00 | 0.00 | 43 | 1024.3 |
| 20260501171601 | 67 | 199 | 4.0 | 8.0 | 0.00 | 0.00 | 0.00 | 43 | 1024.3 |
| 20260501170105 | 68 | 198 | 4.0 | 9.0 | 0.00 | 0.00 | 0.00 | 43 | 1024.5 |
| 20260501164557 | 69 | 188 | 2.0 | 7.0 | 0.00 | 0.00 | 0.00 | 42 | 1024.6 |
| 20260501163058 | 70 | 238 | 3.0 | 10.0 | 0.00 | 0.00 | 0.00 | 40 | 1024.8 |
| 20260501161541 | 72 | 210 | 3.0 | 7.0 | 0.00 | 0.00 | 0.00 | 40 | 1025.0 |
| 20260501160140 | 73 | 267 | 2.0 | 6.0 | 0.00 | 0.00 | 0.00 | 39 | 1025.0 |
| 20260501154600 | 73 | 317 | 1.0 | 5.0 | 0.00 | 0.00 | 0.00 | 38 | 1025.3 |
| 20260501153041 | 73 | 215 | 1.0 | 7.0 | 0.00 | 0.00 | 0.00 | 35 | 1025.4 |
| 20260501151526 | 73 | 275 | 0.0 | 5.0 | 0.00 | 0.00 | 0.00 | 37 | 1025.6 |
| 20260501150111 | 73 | 290 | 1.0 | 10.0 | 0.00 | 0.00 | 0.00 | 34 | 1025.8 |
| 20260501144541 | 73 | 211 | 2.0 | 6.0 | 0.00 | 0.00 | 0.00 | 34 | 1026.0 |
| 20260501143142 | 74 | 245 | 3.0 | 6.0 | 0.00 | 0.00 | 0.00 | 34 | 1026.0 |
| 20260501141558 | 73 | 198 | 2.0 | 7.0 | 0.00 | 0.00 | 0.00 | 36 | 1026.2 |
| 20260501140050 | 73 | 208 | 5.0 | 10.0 | 0.00 | 0.00 | 0.00 | 35 | 1026.4 |